Погода в Большом Козино

Россия / Нижегородская область     56°24′13″N   43°42′35″E
темп.,
°C
ветер,
м/с
пор.,
м/с
влажн.,
%
обл.,
%
осадки,
мм/ч
давл.,
гПа
погр.,
м
16 апреля, пт
пт1600:00+9всв7138856 0.0 1021455
03:00+8всв6118798 0.0 1022547
06:00+7всв6128596 0.0 1023557
09:00+8всв71178100 0.0 1024639
12:00+11в71070100 0.0 1024851
15:00+12всв6106985 0.0 1025856
18:00+11всв6106861 0.0 1025735
21:00+8всв6127380 0.0 1026458
17 апреля, сб
сб1700:00+5всв5127428 0.0 1027361
03:00+4всв5117737 0.0 1027304
06:00+3всв5127523 0.0 1028341
09:00+8в610525 0.0 1028590
12:00+12в78372 0.0 10271044
15:00+13всв78345 0.0 10261277
18:00+11всв59465 0.0 1026448
21:00+7всв513640 0.0 1026330
18 апреля, вс
вс1800:00+5всв411730 0.0 1026285
03:00+4всв512780 0.0 1026276
06:00+3всв411820 0.0 1026306
09:00+9всв711580 0.0 1026818
12:00+12в684210 0.0 10251559
15:00+13в7839100 0.0 10251937
18:00+11всв61052100 0.0 1025547
21:00+8всв71266100 0.0 1026613
19 апреля, пн
пн1900:00+6всв6117696 0.1 1027513
03:00+5всв61275100 0.1 1028497
06:00+4в6117698 0.0 1028580
09:00+5в71063100 0.0 1029699
12:00+7в7952100 0.0 10301018
15:00+10в793811 0.0 10291692
18:00+8в6104096 0.0 10291137
21:00+5в51249100 0.0 1029505
20 апреля, вт
вт2000:00+3в6135354 0.0 1028512
03:00+2в6126092 0.0 1028424
06:00+2в6136394 0.0 1028514
09:00+6вюв81159100 0.0 1027834
12:00+6вюв9136278 0.0 1026958
15:00+8вюв91361100 0.0 10231106
18:00+6вюв101665100 0.0 1022997
21:00+6вюв101760100 0.0 1021934